Voltar ao catálogo

STARLINK-6189

AtivoComunicaçõesVLEO
NORAD 56377·PAYLOAD·🇺🇸 United States

Lançado May 4, 2023 de Cape Canaveral Space Force Station

Loading…

Próximas Passagens (próximas 24 horas)

TLE

AtualizadoSource: CelesTrak SupGP

Época: Sep 15, 2026, 02:43 UTC

1 56377C 23061D   26258.11368056  .00032272  00000+0  11704-2 0  2581
2 56377  43.0031 208.6424 0001222 259.0288 102.7875 15.27521480    14

Acompanhe STARLINK-6189 em tempo real com AllMySat

Download on the App Store